Weather History for Riverton, WY

Change the Weather History Date:

Tuesday, March 5, 2013

  Actual Average Record
Temperature  
Mean Temperature 23 °F 31 °F  
Max Temperature 38 °F 43 °F 60 °F (2000)
Min Temperature 8 °F 20 °F 4 °F (2003)
Degree Days  
Heating Degree Days 42 34  
Month to date heating degree days 164 172  
Since 1 July heating degree days 5730 6026  
Cooling Degree Days 0 0  
Month to date cooling degree days 0 0  
Year to date cooling degree days 0 0  
Moisture  
Dew Point 8 °F    
Average Humidity 52    
Maximum Humidity 76    
Minimum Humidity 27    
Precipitation  
Precipitation 0.00 in 0.01 in 0.42 in (2010)
Month to date precipitation 0.01 0.06  
Year to date precipitation 0.66 0.57  
Snow  
Snow 0.00 in - - ()
Month to date snowfall 0.1  
Since 1 July snowfall 18.9  
Snow Depth 0.00 in    
Sea Level Pressure  
Sea Level Pressure 30.24 in    
Wind  
Wind Speed 3 mph (NNE)    
Max Wind Speed 9 mph    
Max Gust Speed 10 mph    
Visibility 10 miles    
Events      
T = Trace of Precipitation, MM = Missing Value Source: NWS Daily Summary

Daily Weather History Graph

Daily Weather History Graph

Search for Another Location

Airport:

Trip Planner

Search our weather history database for the weather conditions in past years. The results will help you decide how hot, cold, wet, or windy it might be!

Date:

Astronomy

Mar. 05, 2013 Rise Set
Actual Time 6:42 AM MST 6:08 PM MST
Civil Twilight 6:14 AM MST 6:36 PM MST
Nautical Twilight 5:41 AM MST 7:09 PM MST
Astronomical Twilight 5:08 AM MST 7:42 PM MST
Moon 2:04 AM MST (3/5) 11:43 AM MST (3/5)
Length of Visible Light 12h 22m
Length of Day
11h 25m
Last Quarter, 40% of the Moon is Illuminated
Mar 5
Last Quarter
Mar 11
New
Mar 19
First Quarter
Mar 27
Full
Apr 2
Last Quarter

Hourly Weather History & Observations

Time (MST) Temp. Windchill Dew Point Humidity Pressure Visibility Wind Dir Wind Speed Gust Speed Precip Events Conditions
12:53 AM 17.6 °F 12.3 °F 8.6 °F 68% 30.21 in 10.0 mi East 3.5 mph - N/A   Clear
1:53 AM 18.0 °F - 8.1 °F 65% 30.33 in 10.0 mi Calm Calm - N/A   Clear
2:53 AM 12.0 °F - 5.0 °F 73% 30.36 in 10.0 mi Calm Calm - N/A   Clear
3:53 AM 10.0 °F 1.8 °F 5.0 °F 80% 30.34 in 10.0 mi NNW 4.6 mph - N/A   Clear
4:53 AM 10.0 °F - 5.0 °F 80% 30.35 in 10.0 mi Calm Calm - N/A   Clear
5:53 AM 14.0 °F - 6.1 °F 71% 30.35 in 10.0 mi Calm Calm - N/A   Clear
6:53 AM 12.0 °F - 6.1 °F 77% 30.37 in 10.0 mi Calm Calm - N/A   Clear
7:53 AM 16.0 °F - 9.0 °F 74% 30.35 in 10.0 mi Calm Calm - N/A   Clear
8:53 AM 19.9 °F - 10.0 °F 65% 30.35 in 10.0 mi Calm Calm - N/A   Clear
9:53 AM 21.9 °F 15.7 °F 10.9 °F 63% 30.33 in 10.0 mi NE 4.6 mph - N/A   Clear
10:53 AM 25.0 °F 20.7 °F 10.9 °F 55% 30.30 in 10.0 mi ENE 3.5 mph - N/A   Clear
11:53 AM 28.0 °F - 10.9 °F 49% 30.28 in 10.0 mi Calm Calm - N/A   Clear
12:53 PM 33.1 °F 27.7 °F 9.0 °F 37% 30.22 in 10.0 mi East 5.8 mph - N/A   Clear
1:53 PM 35.1 °F 32.2 °F 6.1 °F 30% 30.17 in 10.0 mi Variable 3.5 mph - N/A   Clear
2:53 PM 36.0 °F 31.1 °F 7.0 °F 30% 30.18 in 10.0 mi ENE 5.8 mph - N/A   Clear
3:53 PM 37.0 °F - 6.1 °F 28% 30.16 in 10.0 mi Calm Calm - N/A   Clear
4:53 PM 37.0 °F 34.5 °F 8.1 °F 30% 30.14 in 10.0 mi Variable 3.5 mph - N/A   Clear
5:53 PM 35.1 °F - 9.0 °F 34% 30.12 in 10.0 mi Calm Calm - N/A   Clear
6:53 PM 30.0 °F 25.2 °F 8.1 °F 40% 30.15 in 10.0 mi North 4.6 mph - N/A   Clear
7:53 PM 28.9 °F 22.8 °F 7.0 °F 40% 30.14 in 10.0 mi NNE 5.8 mph - N/A   Clear
8:53 PM 28.0 °F 22.8 °F 7.0 °F 41% 30.13 in 10.0 mi North 4.6 mph - N/A   Clear
9:53 PM 24.1 °F 18.2 °F 9.0 °F 53% 30.14 in 10.0 mi NNW 4.6 mph - N/A   Clear
10:53 PM 21.9 °F 11.7 °F 10.0 °F 60% 30.12 in 10.0 mi NW 9.2 mph - N/A   Clear
11:53 PM 23.0 °F 14.7 °F 9.0 °F 55% 30.10 in 10.0 mi NW 6.9 mph - N/A   Clear